This demonstration page uses our WeatherBlox Daily Observations layout. Learn more.

Left ArrowRight Arrow

31.84235, -102.49876

Hourly Observations for August 5, 2015

Temp ( °F °C ) Dew Point ( °F °C ) Humidity (%) Winds ( mph kmh ) Pressure ( in mb ) Visibility ( mi km ) Precip ( " mm )
12:53 am 00:53 Clear 86 30 59 15 40 40 S 10 17 29.84 1011 10 16 0.00 0.00
1:53 am 01:53 Clear 85 29.4 56 13.3 37 37 S 15 24 29.84 1010 10 16 0.00 0.00
2:53 am 02:53 Clear 83 28.3 57 13.9 41 41 S 13 20 29.84 1010 10 16 0.00 0.00
3:53 am 03:53 Clear 80 26.7 58 14.4 47 47 SSW 8 13 29.84 1011 10 16 0.00 0.00
4:53 am 04:53 Clear 81 27.2 60 15.6 49 49 SSW 15 24 29.85 1011 10 16 0.00 0.00
5:53 am 05:53 Clear 79 26.1 60 15.6 52 52 SSW 12 19 29.85 1011 10 16 0.00 0.00
6:53 am 06:53 Clear 79 26.1 60 15.6 52 52 SSW 10 17 29.86 1011 10 16 0.00 0.00
7:28 am 07:28 Mostly Sunny 78 25.6 60 15.6 54 54 SSW 13 20 29.85 1011 10 16 0.00 0.00
7:53 am 07:53 Mostly Sunny 79 26.1 62 16.7 56 56 S 16 26 29.87 1012 10 16 0.00 0.00
8:53 am 08:53 Sunny 81 27.2 64 17.8 57 57 SSW 15 24 29.89 1012 10 16 0.00 0.00
9:53 am 09:53 Sunny 84 28.9 64 17.8 51 51 SSW 17 28 29.90 1012 10 16 0.00 0.00
10:53 am 10:53 Sunny 89 31.7 64 17.8 43 43 SSW 12 19 29.89 1012 10 16 0.00 0.00
11:53 am 11:53 Sunny 93 33.9 63 17.2 37 37 S 13 20 29.88 1012 10 16 0.00 0.00
12:53 pm 12:53 Sunny 96 35.6 61 16.1 31 31 S 10 17 29.87 1012 10 16 0.00 0.00
1:53 pm 13:53 Sunny 98 36.7 52 11.1 21 21 S 5 7 29.85 1011 10 16 0.00 0.00
2:53 pm 14:53 Sunny 100 37.8 50 10 18 18 VRB 3 6 29.83 1010 10 16 0.00 0.00
3:53 pm 15:53 Sunny 102 38.9 46 7.8 15 15 VRB 7 11 29.81 1010 10 16 0.00 0.00
4:53 pm 16:53 Mostly Sunny 103 39.4 49 9.4 16 16 VRB 5 7 29.79 1009 10 16 0.00 0.00
5:53 pm 17:53 Sunny 102 38.9 49 9.4 17 17 SE 8 13 29.78 1008 10 16 0.00 0.00
6:53 pm 18:53 Sunny 101 38.3 47 8.3 16 16 SE 6 9 29.78 1008 10 16 0.00 0.00
7:53 pm 19:53 Sunny 100 37.8 47 8.3 16 16 SE 10 17 29.78 1008 10 16 0.00 0.00
8:53 pm 20:53 Mostly Clear 95 35 50 10 22 22 SE 8 13 29.78 1009 10 16 0.00 0.00
9:53 pm 21:53 Clear 93 33.9 53 11.7 26 26 SSE 12 19 29.79 1009 10 16 0.00 0.00
10:53 pm 22:53 Clear 91 32.8 53 11.7 27 27 S 14 22 29.80 1009 10 16 0.00 0.00
11:53 pm 23:53 Clear 89 31.7 55 12.8 31 31 S 12 19 29.80 1009 10 16 0.00 0.00

Powered by AerisWeather